Weather History for Lawrence, MA

Change the Weather History Date:

Tuesday, December 4, 2012

  Actual Average Record
Temperature  
Mean Temperature 46 °F -  
Max Temperature 59 °F 42 °F 68 °F (1998)
Min Temperature 33 °F 25 °F -4 °F (1940)
Degree Days  
Heating Degree Days 19    
Moisture  
Dew Point 41 °F    
Average Humidity 85    
Maximum Humidity 92    
Minimum Humidity 80    
Precipitation  
Precipitation 0.00 in - - ()
Sea Level Pressure  
Sea Level Pressure 30.23 in    
Wind  
Wind Speed 2 mph (SSW)    
Max Wind Speed 10 mph    
Max Gust Speed 18 mph    
Visibility 8 miles    
Events      
Averages and records for this station are not official NWS values.
T = Trace of Precipitation, MM = Missing Value Source: NWS Daily Summary

Daily Weather History Graph

Daily Weather History Graph

Search for Another Location

Airport:

Trip Planner

Search our weather history database for the weather conditions in past years. The results will help you decide how hot, cold, wet, or windy it might be!

Date:

Astronomy

Dec. 04, 2012 Rise Set
Actual Time 6:58 AM EST 4:10 PM EST
Civil Twilight 6:26 AM EST 4:42 PM EST
Nautical Twilight 5:51 AM EST 5:18 PM EST
Astronomical Twilight 5:17 AM EST 5:52 PM EST
Moon 10:00 PM EST (12/4) 10:46 AM EST (12/4)
Length of Visible Light 10h 15m
Length of Day
9h 12m
Waning Gibbous, 69% of the Moon is Illuminated
Dec 4
Waning Gibbous
Dec 6
Last Quarter
Dec 13
New
Dec 20
First Quarter
Dec 28
Full

Hourly Weather History & Observations

Time (EST) Temp. Windchill Dew Point Humidity Pressure Visibility Wind Dir Wind Speed Gust Speed Precip Events Conditions
12:54 AM 33.1 °F - 30.9 °F 92% 30.32 in 6.0 mi Calm Calm - N/A   Clear
1:04 AM 33.8 °F - 30.2 °F 87% 30.32 in 1.8 mi Calm Calm - N/A   Clear
1:15 AM 33.8 °F - 30.2 °F 87% 30.32 in 2.5 mi Calm Calm - N/A   Partly Cloudy
1:27 AM 33.8 °F - 30.2 °F 87% 30.32 in 4.0 mi Calm Calm - N/A   Scattered Clouds
1:41 AM 33.8 °F - 30.2 °F 87% 30.32 in 6.0 mi Calm Calm - N/A   Mostly Cloudy
1:54 AM 33.1 °F - 30.9 °F 92% 30.33 in 8.0 mi Calm Calm - N/A   Mostly Cloudy
2:54 AM 34.0 °F - 32.0 °F 92% 30.32 in 10.0 mi Calm Calm - N/A   Overcast
3:54 AM 36.0 °F - 32.0 °F 86% 30.33 in 10.0 mi Calm Calm - N/A   Overcast
4:45 AM 37.4 °F - 33.8 °F 87% 30.32 in 10.0 mi Calm Calm - N/A   Overcast
4:54 AM 37.4 °F - 33.8 °F 87% 30.32 in 10.0 mi Calm Calm - N/A   Overcast
5:54 AM 37.9 °F - 34.0 °F 86% 30.33 in 10.0 mi Calm Calm - N/A   Overcast
6:54 AM 37.4 °F - 33.8 °F 87% 30.33 in 10.0 mi Calm Calm - N/A   Overcast
7:14 AM 37.4 °F 34.9 °F 33.8 °F 87% 30.33 in 10.0 mi West 3.5 mph - N/A   Overcast
7:24 AM 37.4 °F - 33.8 °F 87% 30.34 in 10.0 mi Calm Calm - N/A   Overcast
7:54 AM 39.9 °F - 35.1 °F 83% 30.34 in 10.0 mi Calm Calm - N/A   Overcast
8:05 AM 39.2 °F - 35.6 °F 87% 30.33 in 10.0 mi Calm Calm - N/A   Overcast
8:54 AM 41.0 °F - 37.0 °F 86% 30.33 in 3.0 mi Calm Calm - N/A   Overcast
9:54 AM 42.1 °F - 37.9 °F 85% 30.33 in 3.0 mi Calm Calm - N/A   Overcast
10:02 AM 42.8 °F - 39.2 °F 87% 30.32 in 2.0 mi Calm Calm - N/A   Overcast
10:54 AM 44.1 °F - 39.9 °F 85% 30.30 in 2.0 mi Calm Calm - N/A   Overcast
11:17 AM 44.6 °F - 39.2 °F 81% 30.28 in 3.0 mi Calm Calm - N/A   Overcast
11:54 AM 46.9 °F - 42.1 °F 83% 30.26 in 6.0 mi SSW 5.8 mph - N/A   Haze
12:54 PM 46.9 °F - 42.1 °F 83% 30.24 in 7.0 mi SW 4.6 mph - N/A   Overcast
1:54 PM 48.0 °F - 43.0 °F 83% 30.21 in 9.0 mi SSW 3.5 mph - N/A   Overcast
2:36 PM 50.0 °F - 44.6 °F 82% 30.19 in 10.0 mi SSW 5.8 mph - N/A   Overcast
2:54 PM 51.1 °F - 45.0 °F 80% 30.19 in 10.0 mi SSW 5.8 mph - N/A   Overcast
3:44 PM 51.8 °F - 46.4 °F 82% 30.18 in 9.0 mi SSW 4.6 mph - N/A   Overcast
3:54 PM 52.0 °F - 46.9 °F 83% 30.18 in 9.0 mi SSW 5.8 mph - N/A   Overcast
4:54 PM 53.1 °F - 48.9 °F 86% 30.16 in 7.0 mi South 5.8 mph - N/A   Overcast
5:54 PM 54.0 °F - 50.0 °F 86% 30.14 in 6.0 mi South 5.8 mph - N/A   Overcast
6:54 PM 55.0 °F - 51.1 °F 86% 30.12 in 7.0 mi SW 6.9 mph - N/A   Overcast
7:13 PM 55.4 °F - 51.8 °F 88% 30.11 in 7.0 mi SSW 5.8 mph - N/A   Overcast
7:54 PM 55.9 °F - 51.1 °F 84% 30.09 in 8.0 mi SSW 6.9 mph - N/A   Overcast
8:54 PM 57.0 °F - 52.0 °F 83% 30.05 in 10.0 mi SSW 8.1 mph - N/A   Overcast
9:54 PM 57.0 °F - 52.0 °F 83% 30.03 in 10.0 mi SSW 10.4 mph 18.4 mph N/A   Overcast
10:54 PM 57.9 °F - 53.1 °F 84% 30.01 in 10.0 mi SSW 8.1 mph - N/A   Overcast
11:30 PM 59.0 °F - 53.6 °F 82% 29.98 in 10.0 mi SSW 8.1 mph - N/A   Overcast
11:54 PM 59.0 °F - 53.1 °F 81% 29.97 in 10.0 mi South 9.2 mph - N/A   Overcast